Vorticity
1 17 4 -0 7 10 9 9 12 11 14 13 16 7 27 0 10 16 11 2 3 18 7 11 5 11 10 12 21 8 -4 11 5 9 8 5 -1 5 -10 1 12 7 3 14
-2 2 31 3 6 9 7 8 10 18 15 6 10 18 11 -6 3 5 1 13 11 4 3 7 8 12 11 14 4 1 8 20 5 26 19 5 10 6 9 -7 1 12 4 33
3 -30 25 11 10 9 8 13 6 12 12 10 10 12 10 9 8 12 11 13 5 4 15 14 12 19 17 18 6 9 -3 19 0 6 6 46 7 1 -0 3 9 5 -4 -29
13 -6 4 -4 15 7 8 8 5 6 22 14 9 7 17 6 8 15 6 13 7 6 6 3 11 10 16 10 16 16 2 11 4 -3 8 16 13 28 11 5 3 -6 2 -2
13 27 17 4 8 6 8 12 9 13 11 12 11 -2 15 6 7 0 12 12 17 -9 7 7 1 20 21 -12 -1 2 2 14 6 11 8 4 7 20 12 14 10 11 16 15
19 27 1 4 6 6 7 10 10 8 19 12 15 17 11 10 8 4 7 0 13 11 15 9 15 5 8 14 16 1 2 3 8 9 13 14 25 23 11 12 12 15 13 15
4 17 19 8 5 7 10 10 10 14 19 13 3 8 0 7 5 11 9 3 7 11 12 10 14 10 10 8 29 13 18 11 5 8 12 10 11 13 26 20 14 12 19 17
9 4 13 8 6 6 10 10 15 12 4 14 5 6 14 11 3 1 5 6 11 7 6 -0 3 3 5 7 10 8 8 12 13 2 14 -4 8 18 14 1 5 7 6 5
29 -2 4 7 6 7 10 13 11 11 9 5 10 7 16 12 4 4 7 7 9 6 3 3 12 8 13 15 12 10 14 -2 -1 15 6 5 21 6 7 14 7 13 7 4
24 32 0 6 6 8 12 9 11 12 10 15 16 13 10 13 16 11 11 6 7 10 5 3 7 7 -0 4 6 18 5 10 3 3 -0 6 3 6 7 13 7 25 3 -6
17 20 4 7 6 9 11 12 11 12 17 27 14 15 21 7 8 6 19 3 8 16 -0 8 3 9 13 9 20 9 15 8 16 17 8 18 13 20 6 5 -4 -4 -0 1
21 26 5 6 8 10 10 10 14 14 10 37 13 9 14 13 11 2 6 -8 22 14 1 7 11 3 13 11 7 15 4 -5 6 3 12 1 0 10 9 -1 -6 -5 -2 1
38 2 1 10 9 11 9 13 14 17 2 22 14 11 14 12 12 13 8 11 -7 20 5 -0 4 6 16 3 23 6 19 5 0 -6 11 13 8 11 4 4 12 13 12 14
23 13 14 10 10 9 11 18 15 11 19 31 10 11 14 14 15 16 14 18 14 16 11 11 3 11 12 5 -5 13 -0 4 9 13 8 5 9 12 15 6 8 11 12 14
-1 8 8 11 12 10 16 17 17 -22 14 28 11 12 18 20 16 16 14 11 12 13 14 -0 7 6 2 7 6 6 10 8 7 1 10 12 4 4 6 7 8 11 18 17
-2 8 17 12 9 14 14 -8 27 -13 30 2 -3 12 9 6 7 16 18 16 12 11 10 12 10 11 5 11 20 17 24 16 15 14 20 3 8 9 9 10 9 10 11 15
12 3 14 10 10 11 8 0 5 12 8 11 9 5 11 7 7 7 9 11 15 12 13 10 12 13 12 8 4 6 12 18 15 13 13 10 8 9 11 13 13 12 12 13
9 8 13 10 8 11 6 18 8 8 -7 -10 22 27 13 9 9 8 8 8 9 7 6 7 11 9 11 14 20 18 10 10 7 7 10 9 8 9 9 9 9 9 8 9
6 11 14 7 9 -4 10 12 1 -5 7 9 30 14 15 14 12 10 9 7 7 15 7 12 11 14 8 6 8 6 7 7 5 6 9 7 7 7 4 2 4 7 6 3
13 12 11 7 4 6 21 8 7 -0 4 9 3 1 26 12 8 3 1 7 7 11 12 12 15 9 6 4 10 7 5 5 9 5 6 -1 -5 -3 -2 -5 -6 0 19 17
9 12 2 12 4 23 5 2 -1 16 10 22 15 8 5 5 6 9 4 13 11 9 19 -3 13 17 12 12 7 4 6 7 6 5 7 7 4 4 -1 -8 -2 7 21 17
9 9 7 2 -4 -3 5 19 5 23 3 24 4 4 8 11 5 3 14 8 15 7 14 7 15 10 11 16 11 5 4 4 2 -1 -3 -4 -5 -3 2 11 18 23 20 20
1 15 -4 10 -9 14 15 17 20 8 34 9 9 8 7 3 5 13 11 12 13 14 12 11 3 6 16 16 12 6 3 0 -2 -3 3 6 7 18 23 23 20 19 18 19
-4 -24 9 7 16 23 17 15 18 31 13 9 9 5 6 3 13 10 7 12 11 10 11 1 6 12 14 12 11 11 8 5 4 6 19 25 19 17 17 16 18 16 18 21
-2 -5 -2 12 13 24 27 19 22 10 6 4 4 2 7 8 8 12 10 14 11 8 -4 4 7 10 9 7 2 -2 2 16 21 15 15 14 17 15 14 18 15 15 15 18
-5 5 15 13 24 23 18 12 7 5 4 5 2 5 12 13 10 14 6 11 5 -9 5 9 6 -1 -5 -0 10 17 16 15 16 14 14 14 14 11 13 8 9 13 20 13
12 5 22 17 28 10 5 3 4 5 5 -1 7 16 10 10 18 12 9 1 -1 -1 0 0 4 10 14 18 16 14 11 8 6 8 11 17 13 13 13 9 10 11 20 -1
Height
3003 3009 3015 3018 3021 3022 3020 3019 3020 3019 3018 3020 3019 3021 3021 3023 3025 3025 3025 3027 3027 3027 3029 3030 3032 3033 3033 3035 3038 3042 3043 3047 3052 3054 3055 3057 3059 3064 3066 3068 3071 3071 3074 3076
2996 3002 3008 3010 3015 3016 3015 3014 3015 3015 3017 3017 3019 3020 3022 3023 3026 3026 3027 3028 3030 3030 3030 3032 3032 3034 3035 3037 3040 3042 3045 3047 3051 3055 3059 3058 3059 3061 3064 3067 3069 3071 3073 3074
2989 2995 3001 3003 3009 3011 3011 3011 3011 3012 3013 3015 3016 3020 3022 3024 3025 3026 3026 3027 3029 3032 3032 3031 3033 3032 3035 3037 3040 3043 3045 3047 3049 3051 3052 3053 3057 3059 3062 3065 3067 3069 3069 3070
2982 2988 2994 2998 3003 3005 3006 3006 3006 3008 3009 3011 3014 3018 3021 3023 3024 3025 3026 3027 3028 3029 3033 3033 3033 3034 3036 3039 3041 3043 3045 3047 3050 3050 3051 3052 3053 3056 3060 3062 3063 3065 3066 3066
2975 2983 2988 2992 2997 2999 3001 3003 3004 3004 3006 3008 3012 3016 3019 3021 3023 3024 3026 3027 3028 3029 3029 3031 3033 3033 3036 3038 3041 3042 3045 3046 3048 3049 3050 3050 3051 3053 3055 3057 3060 3061 3061 3061
2972 2976 2980 2987 2992 2995 2996 2999 3001 3002 3004 3006 3011 3014 3017 3018 3021 3024 3024 3026 3027 3028 3031 3033 3033 3035 3037 3039 3040 3041 3043 3045 3046 3047 3048 3048 3049 3048 3050 3052 3053 3055 3057 3059
2966 2971 2975 2982 2987 2990 2993 2995 2997 2999 3002 3004 3008 3011 3014 3016 3019 3021 3024 3026 3027 3031 3032 3034 3035 3037 3038 3039 3041 3043 3044 3046 3047 3047 3047 3050 3046 3046 3047 3049 3050 3050 3052 3052
2960 2966 2971 2979 2984 2986 2989 2991 2994 2996 2997 3002 3004 3008 3011 3014 3017 3020 3023 3026 3028 3030 3033 3034 3035 3038 3040 3040 3041 3043 3044 3046 3047 3048 3047 3047 3044 3045 3046 3046 3047 3048 3048 3048
2957 2960 2969 2976 2980 2983 2985 2988 2991 2993 2996 2998 3001 3005 3009 3012 3015 3019 3022 3025 3027 3029 3032 3034 3036 3037 3037 3039 3040 3041 3041 3042 3046 3046 3047 3044 3043 3044 3044 3044 3044 3045 3045 3045
2953 2957 2966 2972 2977 2980 2983 2985 2988 2990 2993 2995 2998 3002 3006 3008 3012 3016 3019 3022 3025 3028 3031 3033 3034 3035 3036 3038 3037 3037 3040 3042 3042 3044 3044 3042 3042 3043 3043 3045 3047 3042 3043 3042
2949 2954 2963 2969 2973 2977 2981 2983 2985 2988 2991 2993 2996 3001 3004 3008 3010 3013 3018 3022 3024 3027 3030 3031 3032 3034 3035 3036 3037 3038 3038 3040 3042 3044 3044 3044 3041 3041 3043 3042 3039 3040 3040 3038
2945 2952 2961 2966 2971 2975 2978 2981 2983 2986 2990 2994 2996 3000 3004 3007 3010 3013 3015 3018 3020 3024 3026 3028 3030 3032 3034 3035 3036 3037 3039 3037 3039 3040 3037 3036 3036 3036 3037 3035 3035 3034 3033 3031
2943 2952 2959 2965 2970 2974 2977 2979 2982 2985 2988 2992 2996 2999 3003 3006 3008 3011 3014 3016 3019 3022 3024 3026 3028 3030 3031 3033 3035 3035 3036 3036 3036 3036 3033 3033 3035 3034 3032 3032 3031 3028 3025 3022
2943 2951 2958 2964 2969 2972 2976 2979 2982 2986 2990 2991 2996 2999 3002 3005 3007 3010 3012 3014 3017 3020 3022 3023 3025 3027 3029 3029 3030 3031 3032 3034 3032 3032 3031 3032 3031 3029 3027 3025 3022 3019 3017 3013
2943 2952 2959 2964 2970 2973 2976 2980 2984 2988 2993 2992 2995 3000 3003 3005 3007 3008 3011 3013 3016 3017 3019 3021 3023 3025 3027 3027 3027 3027 3028 3028 3029 3026 3027 3027 3026 3024 3022 3020 3018 3014 3011 3008
2946 2954 2960 2965 2970 2974 2978 2983 2987 2989 2992 2996 2997 3001 3004 3006 3008 3009 3010 3013 3015 3017 3018 3020 3021 3022 3025 3024 3023 3023 3024 3023 3023 3024 3023 3024 3022 3021 3019 3016 3013 3010 3007 3003
2947 2955 2960 2966 2973 2977 2982 2987 2989 2991 2995 2997 3000 3002 3004 3006 3008 3010 3011 3013 3014 3016 3017 3018 3018 3020 3022 3020 3020 3020 3019 3018 3018 3019 3020 3020 3018 3015 3013 3010 3008 3005 3002 2999
2949 2955 2962 2969 2975 2980 2984 2987 2990 2993 2996 2997 2999 3001 3004 3006 3008 3010 3011 3013 3014 3015 3015 3015 3016 3018 3018 3017 3015 3015 3015 3015 3015 3015 3014 3014 3013 3011 3008 3005 3001 2999 2996 2993
2951 2957 2965 2972 2977 2982 2985 2989 2991 2994 2998 2997 2998 3000 3004 3006 3008 3009 3011 3012 3013 3013 3013 3013 3015 3014 3014 3013 3012 3011 3012 3011 3011 3011 3009 3008 3007 3004 3001 2999 2995 2992 2989 2985
2950 2958 2965 2972 2978 2982 2986 2991 2994 2996 2997 2998 2999 3000 3002 3006 3007 3009 3011 3011 3012 3012 3013 3012 3011 3009 3010 3009 3008 3007 3007 3006 3006 3006 3004 3002 3001 2997 2996 2993 2990 2986 2981 2978
2948 2956 2964 2972 2978 2983 2988 2992 2994 2996 2998 2999 3000 3002 3004 3006 3008 3009 3011 3011 3011 3010 3011 3011 3007 3006 3005 3003 3005 3004 3003 3003 3001 2999 2997 2994 2991 2987 2984 2983 2980 2975 2971 2967
2951 2960 2969 2975 2981 2985 2988 2990 2993 2993 2996 2998 3001 3003 3004 3006 3007 3009 3010 3010 3009 3007 3007 3008 3004 3003 3002 3002 3002 3001 3000 2999 2997 2993 2991 2989 2985 2980 2975 2969 2964 2961 2957 2954
2955 2964 2969 2975 2978 2980 2982 2984 2986 2988 2991 2996 3000 3002 3004 3005 3007 3008 3008 3007 3006 3005 3004 3002 3001 3000 3000 2999 2999 2998 2996 2994 2992 2989 2985 2980 2975 2970 2965 2959 2954 2948 2944 2940
2958 2963 2967 2971 2973 2975 2976 2979 2984 2987 2991 2997 3000 3002 3003 3004 3005 3005 3006 3006 3005 3003 3002 3000 2999 2998 2997 2996 2995 2994 2992 2989 2985 2980 2975 2970 2964 2960 2956 2951 2945 2939 2934 2929
2958 2962 2966 2967 2969 2972 2975 2979 2984 2989 2993 2998 3000 3001 3002 3003 3004 3004 3004 3003 3002 3001 2999 2999 2997 2995 2993 2992 2990 2988 2984 2980 2975 2970 2965 2961 2956 2952 2948 2943 2938 2932 2927 2921
2956 2959 2962 2965 2969 2972 2977 2981 2987 2991 2994 2997 3000 3000 3001 3002 3002 3003 3002 3001 2999 2999 2998 2996 2994 2991 2989 2985 2982 2978 2974 2970 2966 2961 2957 2952 2948 2944 2941 2937 2932 2927 2921 2915
2954 2957 2960 2964 2970 2973 2977 2983 2988 2992 2995 2996 2998 2998 3000 3001 3001 3001 3000 2999 2998 2996 2994 2991 2988 2985 2982 2978 2975 2971 2967 2963 2959 2955 2950 2946 2941 2938 2935 2932 2928 2923 2917 2911